[[{"header":{"parameterUnit":"m.s-1","parameterCategory":1,"la1":30.2991,"la2":30.254,"lo1":-89.0895,"lo2":-89.0444,"dy":0.0017,"dx":0.0017,"nx":28,"ny":28,"refTime":"2025-08-22T03:00:00:Z","depth":0,"parameterNumber":2,"parameterNumberName":"U-component_of_WINDS"},"data":[0,0,0,0,0,0,0,0,0,0,0,0,0,0,0,0,0,0,0,0,0,0,0,0,0,0,0,0,0,0,0,0,0,0,0,0,0,0,0,0,0,0,0,0,0,0,0,0,0,0,0,0,0,0,0,0,0,0,1.8042,1.8043,0,1.8134,1.8135,1.8136,1.8142,1.8141,1.814,1.8139,1.8231,1.8235,1.8238,0,0,0,0,0,0,0,0,0,0,0,0,0,1.7866,1.7869,1.8041,1.8043,1.8044,1.8134,1.8135,1.8136,1.8142,1.8141,1.814,1.8139,1.823,1.8234,1.8238,0,0,0,0,0,0,0,0,0,0,0,0,0,1.7948,1.787,1.8041,1.8058,1.806,1.8134,1.8135,1.8137,1.8142,1.8141,1.8139,1.8138,1.8229,1.8234,1.8239,1.8302,0,0,1.8255,1.8257,0,0,0,0,0,0,0,0,1.7944,1.7955,1.8054,1.8057,1.8059,1.8125,1.8107,1.8192,1.8143,1.8111,1.8139,1.8137,1.8197,1.8205,1.8226,1.8306,1.831,1.8255,1.8258,1.8261,1.8262,0,0,0,0,0,0,0,1.7938,1.7951,1.8078,1.8055,1.8059,1.8059,1.8069,1.8123,1.8162,1.8114,1.8114,1.8125,1.8198,1.8221,1.8228,1.8312,1.8255,1.826,1.8263,1.8265,1.8446,1.8448,0,0,0,0,0,0,1.793,1.7946,1.8075,1.8081,1.7997,1.8063,1.8075,1.8105,1.8161,1.8168,1.8127,1.8125,1.8213,1.8222,1.8231,1.8307,1.8261,1.8265,1.8268,1.8444,1.8446,1.8448,0,0,0,0,0,0,1.7926,1.7941,1.8071,1.8014,1.803,1.8068,1.8103,1.8108,1.813,1.8171,1.8177,1.8143,1.8212,1.8224,1.8284,1.831,1.8268,1.8272,1.8442,1.8445,1.8447,1.8459,0,0,0,0,0,0,1.7921,1.794,1.7965,1.8014,1.8033,1.8124,1.8104,1.8111,1.814,1.8139,1.8188,1.8194,1.8211,1.8276,1.8289,1.8316,1.8276,1.844,1.8443,1.8447,1.8457,1.8462,1.8466,0,0,0,0,0,1.7915,1.7965,1.7966,1.7982,1.8066,1.8125,1.8136,1.8156,1.8142,1.8167,1.8192,1.8193,1.8305,1.8282,1.8297,1.8326,1.8439,1.8443,1.8446,1.8454,1.8461,1.8466,0,0,0,0,0,0,1.7917,1.7972,1.7974,1.8042,1.8079,1.8126,1.8159,1.8162,1.8204,1.8201,1.8223,1.8234,1.8293,1.8315,1.8289,1.8388,1.837,1.8377,1.8371,1.8378,1.8383,1.8375,1.8281,0,0,0,0,0,1.7926,1.7971,1.8015,1.8071,1.8089,1.8121,1.8147,1.8159,1.8198,1.8214,1.8244,1.8281,1.8324,1.8352,1.8395,1.846,1.847,1.8487,1.8492,1.8496,1.8501,1.8535,1.8543,1.8461,1.8461,1.8461,0,0,1.7944,1.7979,1.8006,1.8072,1.8103,1.8147,1.8134,1.8182,1.8214,1.8221,1.8279,1.8302,1.8345,1.8407,1.8436,1.8428,1.8526,1.8501,1.8503,1.8507,1.854,1.8547,1.8554,1.8464,1.8463,1.8463,0,0,1.7999,1.8032,1.808,1.811,1.8156,1.8176,1.8188,1.8235,1.825,1.8309,1.8314,1.8353,1.8428,1.8457,1.8482,1.8546,1.8547,1.8559,1.8584,1.8617,1.8623,1.8629,1.865,1.8658,1.8565,1.8565,1.8565,0,1.8016,1.8084,1.8105,1.8152,1.818,1.8188,1.8236,1.8264,1.8321,1.834,1.833,1.8423,1.8452,1.852,1.8536,1.8557,1.8569,1.8554,1.8621,1.8627,1.8633,1.8653,1.8661,1.8566,1.8566,1.8566,1.8566,0,1.8101,1.8148,1.8181,1.8236,1.8268,1.8316,1.8342,1.8371,1.838,1.84,1.8459,1.8494,1.8543,1.856,1.8569,1.8629,1.8622,1.8617,1.8599,1.8641,1.866,1.8668,1.8567,1.8567,1.8567,1.8567,0,0,1.8161,1.8226,1.8238,1.8261,1.8312,1.8348,1.8395,1.8443,1.8466,1.8505,1.8544,1.8606,1.8601,1.8629,1.8641,1.867,1.8716,1.866,1.8661,1.8668,1.8781,1.8784,1.8793,1.8717,1.8719,1.872,1.8777,0,1.8221,1.8306,1.8324,1.8397,1.8439,1.8446,1.8487,1.8521,1.8541,1.8579,1.8601,1.8644,1.8634,1.8651,1.868,1.8704,1.8738,1.87,1.8751,1.8753,1.8739,1.8803,1.8807,1.8859,1.8785,1.8786,1.8787,0,1.8302,1.8342,1.8419,1.8461,1.848,1.8516,1.856,1.8597,1.8635,1.8647,1.8678,1.8686,1.8734,1.8714,1.8778,1.8751,1.8773,1.8788,1.879,1.8795,1.8772,1.8808,1.8877,1.8884,1.88,1.8799,1.8798,0,1.8336,1.8409,1.8464,1.8484,1.8536,1.8561,1.8583,1.862,1.8647,1.8685,1.8702,1.8746,1.8769,1.8801,1.8821,1.8805,1.8883,1.8865,1.8893,1.8892,1.8908,1.8907,1.898,1.8925,1.8925,1.8924,1.8924,0,1.84,1.8446,1.8479,1.8513,1.8564,1.8584,1.8634,1.8656,1.8688,1.8725,1.8734,1.8768,1.8792,1.8829,1.8844,1.8894,1.8904,1.8915,1.8918,1.8913,1.8911,1.8927,1.8923,1.8926,1.8926,1.8926,1.8925,0,1.8446,1.8471,1.853,1.8574,1.8586,1.8621,1.8658,1.869,1.8709,1.8755,1.8767,1.8798,1.8842,1.8864,1.8919,1.8929,1.8984,1.8986,1.8971,1.8972,1.8998,1.8995,1.9083,1.9095,1.9033,1.9034,1.9034,0,1.8485,1.852,1.8567,1.8592,1.8615,1.8656,1.8683,1.8704,1.8732,1.8777,1.8803,1.8847,1.8883,1.8952,1.8978,1.902,1.9022,1.9049,1.9028,1.9021,1.902,1.9017,1.9019,1.9053,1.9053,1.9054,1.9054,0,1.8549,1.8559,1.8599,1.8642,1.8674,1.8709,1.8743,1.8763,1.8789,1.8819,1.8864,1.8892,1.8947,1.899,1.9033,1.9055,1.9058,1.9061,1.9069,1.9064,1.9053,1.9058,1.898,1.9059,1.9058,1.9058,1.9058,1.9058,1.8592,1.8623,1.866,1.8703,1.8731,1.8762,1.8794,1.8817,1.8855,1.8901,1.8911,1.8958,1.8993,1.9051,1.9074,1.9109,1.9103,1.9116,1.9119,1.9121,1.9121,1.9049,1.9117,1.9117,1.9117,1.9117,1.9117,0,1.8656,1.868,1.8719,1.8766,1.8799,1.8801,1.8838,1.8865,1.8906,1.8939,1.8974,1.9024,1.9065,1.9095,1.9136,1.9159,1.9161,1.9169,1.9167,1.9171,1.9125,1.9113,1.9166,1.9166,1.9166,1.9166,1.9166,1.9166,1.8693,1.8745,1.8759,1.8823,1.8847,1.8893,1.8914,1.8942,1.8968,1.9024,1.9058,1.9077,1.9107,1.9151,1.9188,1.9195,1.9209,1.9217,1.9224,1.918,1.9175,1.917,1.9158,1.922,1.922,1.9267,1.9267,1.9267]},{"header":{"parameterUnit":"m.s-1","parameterCategory":1,"la1":30.2991,"la2":30.254,"lo1":-89.0895,"lo2":-89.0444,"dy":0.0017,"dx":0.0017,"nx":28,"ny":28,"refTime":"2025-08-22T03:00:00:Z","depth":0,"parameterNumber":3,"parameterNumberName":"V-component_of_WINDS"},"data":[0,0,0,0,0,0,0,0,0,0,0,0,0,0,0,0,0,0,0,0,0,0,0,0,0,0,0,0,0,0,0,0,0,0,0,0,0,0,0,0,0,0,0,0,0,0,0,0,0,0,0,0,0,0,0,0,0,0,3.419,3.419,0,3.4142,3.4142,3.4141,3.4048,3.4046,3.4045,3.4043,3.3994,3.3994,3.3995,0,0,0,0,0,0,0,0,0,0,0,0,0,3.42,3.42,3.419,3.419,3.4189,3.4143,3.4142,3.4141,3.4049,3.4046,3.4044,3.4042,3.3994,3.3994,3.3995,0,0,0,0,0,0,0,0,0,0,0,0,0,3.4178,3.42,3.4191,3.4137,3.4132,3.4143,3.4142,3.4141,3.4049,3.4046,3.4044,3.4041,3.3994,3.3994,3.3995,3.4053,0,0,3.3997,3.3997,0,0,0,0,0,0,0,0,3.418,3.4178,3.4146,3.4141,3.4135,3.4098,3.4127,3.4112,3.405,3.4081,3.4043,3.404,3.4031,3.4028,3.4025,3.4051,3.4049,3.3997,3.3997,3.3997,3.3997,0,0,0,0,0,0,0,3.4181,3.418,3.4171,3.4145,3.4139,3.4115,3.4109,3.4124,3.4072,3.4078,3.4071,3.4066,3.4028,3.4025,3.4024,3.4048,3.3997,3.3997,3.3998,3.3998,3.4116,3.4119,0,0,0,0,0,0,3.4191,3.4182,3.4173,3.417,3.4151,3.4117,3.4111,3.4113,3.4071,3.4062,3.4069,3.4062,3.4025,3.4023,3.4021,3.4085,3.3997,3.3998,3.3998,3.4113,3.4117,3.412,0,0,0,0,0,0,3.4191,3.4191,3.4175,3.4174,3.417,3.412,3.4124,3.4114,3.4111,3.4065,3.4055,3.4076,3.4023,3.4021,3.4045,3.4082,3.3998,3.3999,3.411,3.4114,3.4118,3.4214,0,0,0,0,0,0,3.4192,3.4192,3.4214,3.4175,3.417,3.4201,3.4126,3.4115,3.4112,3.4103,3.4069,3.406,3.4021,3.4045,3.4046,3.4081,3.3999,3.4107,3.4112,3.4117,3.4207,3.4221,3.4233,0,0,0,0,0,3.4193,3.4243,3.4216,3.4215,3.4197,3.4203,3.42,3.4154,3.4116,3.4137,3.4107,3.4061,3.4078,3.4048,3.4049,3.4085,3.4104,3.4111,3.4117,3.4202,3.4218,3.4232,0,0,0,0,0,0,3.4289,3.4237,3.4206,3.4246,3.4229,3.4187,3.4213,3.4173,3.4167,3.4159,3.4101,3.4094,3.4126,3.4108,3.4076,3.4137,3.4084,3.409,3.4148,3.4164,3.4176,3.4179,3.4,0,0,0,0,0,3.4314,3.4323,3.4278,3.4317,3.4311,3.4264,3.4264,3.423,3.421,3.4203,3.4174,3.4157,3.4158,3.416,3.4159,3.4204,3.4194,3.4229,3.4242,3.4252,3.4258,3.4278,3.4293,3.414,3.414,3.414,0,0,3.4368,3.4341,3.435,3.4336,3.4319,3.4329,3.4258,3.4272,3.4278,3.4205,3.4226,3.4205,3.4181,3.4216,3.423,3.4202,3.4298,3.426,3.4269,3.4269,3.4286,3.4301,3.4314,3.4145,3.4144,3.4143,0,0,3.4469,3.4451,3.448,3.4464,3.4439,3.4407,3.4414,3.4378,3.4361,3.4381,3.4325,3.4331,3.4335,3.432,3.4313,3.4406,3.4363,3.4408,3.4473,3.4493,3.4505,3.4516,3.4547,3.4559,3.4414,3.4414,3.4414,0,3.4538,3.4551,3.45,3.4517,3.4512,3.4445,3.4473,3.4461,3.4437,3.4434,3.4403,3.4404,3.4384,3.4413,3.4436,3.4433,3.4438,3.4411,3.4508,3.4518,3.4526,3.4556,3.4568,3.442,3.4419,3.4418,3.4418,0,3.4636,3.4646,3.4673,3.465,3.4648,3.4671,3.4623,3.4626,3.4592,3.4563,3.4583,3.4556,3.4546,3.4551,3.4518,3.4575,3.4558,3.4518,3.4463,3.4547,3.4573,3.4584,3.4427,3.4425,3.4424,3.4422,0,0,3.4797,3.4745,3.4756,3.4744,3.471,3.4716,3.4736,3.4726,3.4729,3.4715,3.4728,3.4731,3.4694,3.4686,3.465,3.4668,3.4741,3.4626,3.4624,3.4646,3.4799,3.4828,3.4842,3.4713,3.4715,3.4716,3.48,0,3.489,3.492,3.4874,3.4913,3.492,3.4856,3.4872,3.4853,3.4826,3.4827,3.4797,3.48,3.4751,3.4745,3.4761,3.4729,3.4771,3.4723,3.4723,3.4724,3.4729,3.4856,3.4887,3.4968,3.4811,3.4812,3.4814,0,3.5003,3.4992,3.5033,3.4994,3.4996,3.5011,3.4997,3.5,3.4976,3.4955,3.4945,3.4902,3.4917,3.4864,3.4882,3.485,3.4847,3.4832,3.4834,3.4831,3.4773,3.4855,3.4993,3.5004,3.483,3.4828,3.4827,0,3.5113,3.511,3.5132,3.5124,3.5081,3.5093,3.5076,3.5049,3.5046,3.5034,3.503,3.5021,3.5015,3.5008,3.4963,3.4929,3.4985,3.4929,3.4967,3.4968,3.4981,3.498,3.5118,3.4982,3.4982,3.4982,3.4982,0,3.5221,3.5247,3.5181,3.5195,3.5222,3.5169,3.5197,3.5173,3.515,3.5157,3.5101,3.5109,3.505,3.5051,3.5016,3.5035,3.5033,3.5015,3.5005,3.5019,3.5021,3.5016,3.5008,3.4985,3.4984,3.4984,3.4983,0,3.5349,3.5306,3.5326,3.5283,3.5273,3.5295,3.5257,3.5268,3.5237,3.5246,3.5245,3.5197,3.5195,3.5149,3.5138,3.5114,3.5146,3.5127,3.5154,3.5147,3.5187,3.5183,3.5325,3.5339,3.5196,3.5197,3.5199,0,3.542,3.5438,3.5397,3.5397,3.5382,3.5385,3.538,3.5328,3.5326,3.5299,3.5312,3.5305,3.5297,3.5297,3.5259,3.525,3.5228,3.5279,3.5227,3.5239,3.5227,3.5225,3.5226,3.529,3.5291,3.5293,3.5294,0,3.5549,3.5526,3.5522,3.551,3.5506,3.5495,3.5479,3.5483,3.5425,3.5425,3.5422,3.5416,3.5403,3.5396,3.538,3.536,3.5317,3.5311,3.5318,3.5332,3.5347,3.5337,3.5183,3.5308,3.5306,3.5305,3.5305,3.5304,3.5649,3.5661,3.5634,3.563,3.5613,3.5599,3.5606,3.5576,3.5572,3.5558,3.5527,3.5528,3.5502,3.5475,3.5459,3.5458,3.5432,3.5444,3.5447,3.545,3.5457,3.5348,3.5455,3.5455,3.5454,3.5454,3.5454,0,3.5773,3.5752,3.5749,3.5729,3.5726,3.5686,3.5666,3.5666,3.5668,3.5647,3.5639,3.5635,3.5627,3.5589,3.5577,3.5584,3.5564,3.5582,3.5581,3.5576,3.5482,3.5475,3.5599,3.5599,3.5599,3.5599,3.5599,3.5599,3.5838,3.5856,3.583,3.5839,3.5817,3.5817,3.5809,3.5796,3.5778,3.5776,3.5769,3.5744,3.5716,3.5701,3.5692,3.568,3.5678,3.5703,3.5685,3.5597,3.5583,3.557,3.5563,3.5703,3.5703,3.5779,3.578,3.578]}]]